Location: Capelle
(50.3413°N, 1.9974°E)
Time: 06:17:00
(UTC+00:00)

Resurs 01 Rocket - Pass Details

Date: 12 January 2026
Orbit: 628 x 635 km, 97.7° (Epoch: 18 February)

Event Time Altitude Azimuth Distance (km) Brightness Sun altitude
Exits shadow 17:16:01 10° 91° (E) 1,984 3.6 -9.7°
Maximum altitude 17:18:25 15° 57° (ENE) 1,692 3.2 -10.1°
Drops below altitude 10° 17:20:56 10° 22° (NNE) 2,017 3.8 -10.4°
Sets 17:23:56 0° 0° (N) 2,931 4.8 -10.9°
